Dewpoint
67 66 66 66 67 66 66 65 65 64 64 63 62 62 60 62 63 64 63 63 64 66 66 65 64 64 63 63 64 63 61 60 58 57 59 59 58 57 55 57 59 58 58
66 68 66 66 66 66 65 65 64 64 63 63 63 62 60 60 64 63 63 63 63 65 65 65 64 65 64 63 64 63 62 61 60 58 59 58 58 55 57 57 59 59 58
67 66 67 66 65 64 64 64 63 64 63 62 62 62 61 59 63 62 62 62 63 62 63 64 64 65 65 63 63 63 63 62 61 60 58 55 56 55 58 59 58 58 57
68 66 66 67 65 63 64 62 63 63 62 62 61 61 60 60 61 62 61 61 61 62 62 63 64 65 66 65 63 62 62 62 62 60 59 57 55 55 57 58 58 57 58
67 68 67 66 66 64 63 63 62 63 62 62 61 61 60 59 60 61 61 61 61 60 60 61 62 63 65 65 64 63 62 61 61 59 60 58 55 55 58 57 57 57 58
67 68 68 67 66 65 64 63 62 62 62 62 60 60 61 60 61 60 60 59 60 60 60 61 61 61 62 64 65 64 62 62 61 60 58 59 56 55 57 58 57 57 57
65 67 66 67 67 65 64 63 62 61 62 62 60 61 59 60 60 60 60 60 60 59 60 61 60 61 61 63 64 65 63 62 61 60 59 60 57 57 59 59 57 57 57
65 65 67 66 66 67 64 63 62 62 62 62 60 57 55 57 60 60 60 60 59 59 59 61 61 60 60 62 62 64 64 63 62 62 61 60 58 58 59 59 57 57 57
55 63 64 66 66 67 66 65 64 62 61 63 62 57 54 53 55 59 60 60 59 59 59 60 61 60 60 60 61 61 60 60 62 63 62 61 59 59 59 59 58 57 56
54 58 64 65 66 66 65 64 65 64 62 60 60 62 59 57 55 54 58 60 60 59 59 60 60 61 60 60 60 59 57 56 59 62 62 62 60 60 60 59 59 58 57
52 55 60 63 64 66 64 64 63 63 63 61 61 61 59 59 59 57 53 56 60 60 59 59 59 60 61 60 60 59 55 54 55 59 61 62 61 60 60 60 59 59 58
50 55 60 62 63 66 64 64 64 63 63 62 62 62 60 59 57 57 57 56 57 59 61 61 60 61 61 61 60 57 54 53 54 56 59 60 61 60 60 60 60 58 57
48 52 56 61 62 61 63 64 63 63 62 62 62 61 60 60 60 58 57 56 55 58 57 60 61 60 59 61 61 56 54 52 53 54 56 57 59 59 59 60 60 59 58
46 48 52 59 61 61 62 62 60 60 61 61 60 60 59 59 60 60 59 57 55 56 57 56 61 61 61 61 60 53 56 51 51 52 53 55 57 57 57 58 59 59 58
44 46 52 57 58 60 59 59 58 59 61 60 59 58 57 58 59 59 59 58 55 52 54 57 57 60 61 61 59 59 58 51 50 50 51 52 55 56 56 56 56 57 57
43 45 48 51 58 58 59 58 57 57 58 58 58 57 58 58 58 60 60 57 57 54 51 56 57 59 61 61 59 59 59 53 49 49 49 50 52 54 54 54 54 54 55
42 43 44 48 52 58 58 58 57 57 57 57 57 57 57 57 58 59 59 57 57 57 54 54 58 59 59 60 59 59 59 57 54 48 48 48 49 50 51 51 52 52 53
41 42 43 45 49 49 50 53 57 56 55 55 55 56 57 58 57 58 58 57 57 58 55 53 56 57 59 59 59 58 59 58 57 49 47 47 48 49 49 49 49 49 50
39 40 42 42 43 43 42 43 43 45 47 48 51 53 55 57 58 58 58 58 58 58 58 57 57 55 56 56 56 53 57 56 55 52 46 46 46 47 48 49 48 48 48
38 39 40 41 40 39 38 39 39 39 41 44 46 48 51 53 53 54 55 57 57 58 58 58 57 53 50 49 56 55 51 49 50 46 47 47 46 46 47 47 47 48 48
37 39 38 38 39 37 35 36 34 36 38 40 44 45 47 46 43 42 46 45 47 54 57 56 55 47 46 44 50 52 54 47 45 43 42 42 47 49 48 46 48 47 46
36 37 37 36 37 34 34 34 33 34 37 40 41 42 42 43 41 39 38 38 40 45 48 55 54 45 48 47 49 47 50 39 45 41 43 41 42 43 42 46 45 45 45
30 34 34 34 35 33 33 32 33 33 36 36 37 37 38 38 38 38 36 36 37 37 37 48 50 50 51 48 51 47 43 45 49 40 41 36 34 36 35 37 39 41 42
28 28 29 33 33 32 31 30 30 32 32 33 34 34 35 35 36 35 34 34 35 37 40 44 48 52 54 52 52 51 49 42 35 35 37 37 33 33 33 34 39 41 42
26 27 27 28 29 29 32 29 26 27 28 29 31 32 34 34 34 34 32 32 33 34 36 38 40 41 41 43 48 44 37 38 34 34 34 34 31 30 31 32 33 38 40
24 24 24 26 25 25 27 29 25 25 24 26 28 30 32 32 30 30 31 31 30 33 34 35 36 39 41 44 40 50 45 44 34 33 34 36 30 30 29 30 32 32 34
Lifted_Index
-6 -6 -6 -5 -4 -4 -3 -2 -2 -2 -1 -1 -2 -2 -1 -1 -1 -1 -1 -1 -1 -1 -1 -0 0 0 1 1 1 1 2 3 3 4 5 5 5 6 6 5 5 5 5
-6 -6 -6 -6 -5 -4 -4 -3 -2 -2 -2 -2 -2 -2 -2 -1 -1 -1 -1 -1 -1 -1 -1 -0 0 -0 0 1 1 1 2 2 3 4 5 5 6 6 5 5 5 5 5
-7 -6 -6 -6 -6 -6 -5 -3 -3 -3 -3 -2 -2 -3 -2 -2 -2 -2 -2 -1 -1 -0 -0 -0 -0 -1 -1 -0 1 1 1 2 2 3 4 5 6 6 5 5 5 5 5
-7 -7 -7 -7 -7 -7 -6 -5 -4 -4 -3 -3 -3 -3 -2 -2 -2 -2 -2 -2 -1 -0 0 0 -0 -1 -1 -1 0 1 1 2 2 3 4 5 6 6 5 5 5 4 4
-7 -7 -7 -7 -7 -7 -6 -5 -5 -4 -4 -4 -4 -3 -2 -2 -2 -2 -2 -2 -1 -1 0 0 0 -0 -1 -1 -0 1 1 2 2 3 3 4 5 5 5 4 5 5 4
-7 -7 -7 -7 -7 -7 -7 -6 -5 -5 -5 -4 -4 -3 -3 -2 -2 -2 -2 -2 -1 -1 -0 0 1 0 -0 -1 -1 -0 1 1 2 2 3 4 5 5 5 4 4 5 4
-6 -7 -7 -7 -7 -7 -6 -6 -5 -5 -5 -5 -4 -4 -3 -3 -3 -3 -3 -2 -1 -1 -1 -0 0 1 0 -0 -1 -1 0 1 1 2 3 3 4 5 4 4 4 4 4
-5 -6 -7 -7 -7 -7 -6 -5 -5 -4 -4 -4 -4 -4 -3 -3 -3 -3 -3 -2 -1 -1 -1 -1 -0 0 0 0 -0 -0 -0 0 1 1 2 3 4 4 4 4 4 4 4
-3 -4 -6 -6 -7 -7 -6 -5 -5 -4 -4 -4 -4 -3 -3 -3 -3 -3 -2 -2 -2 -1 -1 -1 -1 -0 0 0 0 0 -0 0 0 1 1 2 3 3 3 4 4 4 4
-1 -2 -4 -6 -6 -6 -6 -5 -4 -4 -4 -3 -3 -3 -3 -3 -2 -2 -2 -2 -2 -1 -1 -1 -1 -0 -0 0 1 1 0 0 0 0 1 1 2 3 3 3 4 4 4
1 -0 -2 -4 -5 -6 -6 -5 -5 -4 -4 -4 -4 -4 -3 -3 -2 -1 -1 -1 -2 -1 -1 -1 -1 -1 -0 -0 0 1 1 1 1 1 1 1 2 2 3 3 3 4 4
4 2 -0 -3 -4 -5 -5 -6 -5 -5 -4 -4 -4 -3 -3 -2 -2 -1 -1 -1 -1 -1 -1 -1 -1 -1 -1 -1 -0 -0 0 1 1 1 1 1 2 2 2 3 3 4 4
5 4 2 -1 -3 -4 -5 -5 -5 -5 -4 -4 -4 -3 -3 -2 -1 -0 -0 -1 -1 -1 -1 -1 -1 -1 -1 -1 -1 -0 -0 0 1 1 2 2 2 2 2 3 3 4 4
5 4 2 -0 -2 -3 -4 -4 -4 -4 -4 -4 -3 -3 -3 -1 -0 -0 -1 -1 -1 -1 -0 -0 -0 -1 -1 -1 -1 -1 -0 -0 0 1 2 2 2 2 2 3 3 4 4
6 4 2 0 -1 -3 -3 -3 -3 -3 -3 -3 -3 -3 -2 -1 -0 -0 -1 -1 -0 0 1 1 0 -0 -0 -1 -1 -1 -1 -1 -0 0 1 2 2 2 2 3 3 4 4
7 5 3 1 -1 -2 -3 -3 -3 -2 -2 -3 -3 -2 -2 -1 -1 -1 -1 -0 1 1 1 1 0 0 0 -0 -0 -1 -1 -1 -0 0 1 1 2 2 3 3 3 4 4
8 7 5 3 1 -0 -1 -2 -2 -2 -1 -1 -1 -1 -0 -0 -1 -1 -1 0 1 1 1 1 0 0 0 0 -0 -0 -1 -1 -0 0 1 1 2 2 3 3 3 3 3
8 7 7 6 4 2 1 -1 -1 -0 0 1 0 0 -0 -0 -1 -1 -1 0 1 1 1 1 0 -0 0 0 0 -0 -0 -0 -0 -0 0 1 1 2 2 3 3 3 3
8 8 8 8 7 6 4 1 0 0 0 0 0 0 -0 -0 -0 -0 -0 -0 -0 -0 0 -0 -0 -0 -0 -0 0 0 0 0 -0 -0 0 0 1 1 2 2 3 3 3
9 9 9 9 10 9 7 3 1 0 -0 -0 -0 0 0 0 0 1 0 0 -0 -0 -0 -0 -0 -0 -0 -0 0 0 1 1 0 -0 -0 -0 0 1 1 2 2 3 3
11 10 10 10 10 10 9 6 4 2 2 2 2 2 2 1 1 1 1 1 0 0 0 0 0 0 0 0 1 1 1 1 1 0 0 0 0 1 1 2 2 2 3
13 12 11 10 10 10 10 9 8 6 6 5 5 5 5 4 3 3 2 2 1 1 1 1 1 1 1 1 2 2 1 1 1 1 1 1 1 1 1 1 2 2 2
13 13 12 11 10 11 12 11 10 9 9 8 8 8 7 7 6 5 5 4 3 3 2 2 1 1 1 1 1 1 1 1 1 1 1 1 1 1 1 1 2 2 2
13 13 13 13 12 13 14 13 12 11 10 9 9 9 9 8 8 7 7 6 6 5 4 3 2 2 1 1 1 1 1 1 1 1 1 1 1 1 1 1 1 2 2
15 15 15 15 15 16 16 15 14 13 11 10 10 9 9 9 9 8 8 8 7 7 7 6 5 3 2 1 1 1 1 1 1 1 1 2 2 2 1 1 1 1 2
16 16 16 17 17 17 17 17 16 14 11 11 10 10 9 9 9 9 9 8 8 8 8 7 6 5 3 2 1 1 1 1 1 1 2 2 2 2 1 1 1 2 2